FW9685 Weather Reports


Display with metric or nautical units.
time (UTC)temp
F
wind
direction
speed
MPH
gust
MPH
rain 1hr
in
rain 24hr
in
rain mn
in
humidity
%
barometer
mb
20260506061556 69 191 5.0 6.0 0.00 0.00 0.00 39 1011.3
20260506044619 71 192 2.0 6.0 0.00 0.00 0.00 37 1010.6
20260506043052 72 193 5.0 7.0 0.00 0.00 0.00 35 1010.9
20260506041553 71 160 0.0 5.0 0.00 0.00 0.00 37 1010.4
20260506040056 71 164 5.0 9.0 0.00 0.00 0.00 38 1010.2
20260506034553 71 149 6.0 10.0 0.00 0.00 0.00 38 1010.1
20260506033055 72 140 9.0 11.0 0.00 0.00 0.00 38 1009.7
20260506031553 72 150 6.0 9.0 0.00 0.00 0.00 37 1009.4
20260506030057 73 153 5.0 7.0 0.00 0.00 0.00 34 1009.3
20260506024559 74 0 1.0 3.0 0.00 0.00 0.00 32 1009.1
20260506023100 74 0 0.0 1.0 0.00 0.00 0.00 32 1009.1
20260506021606 74 0 0.0 1.0 0.00 0.00 0.00 32 1009.2
20260506020052 75 0 0.0 4.0 0.00 0.00 0.00 31 1009.1
20260506014553 75 310 3.0 9.0 0.00 0.00 0.00 31 1009.2
20260506013104 77 304 10.0 14.0 0.00 0.00 0.00 29 1009.0
20260506011552 77 302 9.0 16.0 0.00 0.00 0.00 29 1009.1
20260506010110 78 290 12.0 20.0 0.00 0.00 0.00 28 1009.0
20260506004558 79 286 13.0 22.0 0.00 0.00 0.00 27 1009.1
20260506003059 79 285 16.0 21.0 0.00 0.00 0.00 26 1009.4
20260506001559 79 277 12.0 25.0 0.00 0.00 0.00 27 1009.5
20260506000057 79 273 18.0 22.0 0.00 0.00 0.00 26 1009.6
20260505234607 79 259 19.0 30.0 0.00 0.00 0.00 25 1009.5
20260505233051 79 248 23.0 31.0 0.00 0.00 0.00 25 1009.5
20260505231553 79 266 23.0 31.0 0.00 0.00 0.00 24 1009.3
20260505230054 80 270 25.0 35.0 0.00 0.00 0.00 24 1009.5
20260505224554 81 251 23.0 34.0 0.00 0.00 0.00 23 1009.5
20260505223055 81 265 21.0 30.0 0.00 0.00 0.00 23 1009.6
20260505221553 81 275 18.0 32.0 0.00 0.00 0.00 23 1009.7
20260505220055 81 257 22.0 29.0 0.00 0.00 0.00 22 1009.5
20260505214609 82 238 15.0 31.0 0.00 0.00 0.00 23 1009.9
20260505213101 82 256 19.0 29.0 0.00 0.00 0.00 22 1009.9
20260505211556 82 262 20.0 27.0 0.00 0.00 0.00 22 1010.2
20260505210059 82 254 21.0 28.0 0.00 0.00 0.00 20 1010.5
20260505204604 83 238 23.0 31.0 0.00 0.00 0.00 20 1010.0
20260505203057 82 223 18.0 27.0 0.00 0.00 0.00 20 1010.1
20260505201555 82 257 13.0 22.0 0.00 0.00 0.00 21 1010.2
20260505200105 82 239 15.0 21.0 0.00 0.00 0.00 22 1010.4
20260505194606 82 261 13.0 19.0 0.00 0.00 0.00 22 1010.4
20260505193053 82 267 13.0 20.0 0.00 0.00 0.00 23 1010.7
20260505191556 82 279 13.0 23.0 0.00 0.00 0.00 22 1010.8
20260505190056 82 279 17.0 24.0 0.00 0.00 0.00 23 1010.9
20260505184555 81 257 18.0 27.0 0.00 0.00 0.00 22 1010.9
20260505183055 82 269 17.0 30.0 0.00 0.00 0.00 21 1011.0
20260505181553 83 292 19.0 28.0 0.00 0.00 0.00 22 1011.2
20260505180108 82 265 20.0 30.0 0.00 0.00 0.00 23 1011.3
20260505174603 82 278 20.0 32.0 0.00 0.00 0.00 22 1011.2
20260505173051 82 271 18.0 31.0 0.00 0.00 0.00 24 1011.3
20260505171551 81 280 23.0 30.0 0.00 0.00 0.00 24 1011.1
20260505170053 81 269 18.0 27.0 0.00 0.00 0.00 24 1011.2
20260505164552 80 269 18.0 28.0 0.00 0.00 0.00 24 1011.2
20260505163054 81 281 20.0 28.0 0.00 0.00 0.00 23 1011.1
20260505161604 80 284 21.0 30.0 0.00 0.00 0.00 23 1011.3
20260505153053 78 275 15.0 20.0 0.00 0.00 0.00 25 1010.8
20260505151552 78 264 11.0 18.0 0.00 0.00 0.00 27 1010.8
20260505140108 70 247 10.0 14.0 0.00 0.00 0.00 52 1009.6
20260505124556 64 223 9.0 13.0 0.00 0.00 0.00 76 1009.2
20260505123101 63 204 9.0 11.0 0.00 0.00 0.00 79 1008.9
20260505121551 62 204 9.0 12.0 0.00 0.00 0.00 79 1008.6
20260505120057 62 200 8.0 10.0 0.00 0.00 0.00 79 1008.5
20260505114553 63 192 9.0 11.0 0.00 0.00 0.00 78 1008.4
20260505113106 63 212 8.0 11.0 0.00 0.00 0.00 77 1008.2
20260505111553 64 209 8.0 11.0 0.00 0.00 0.00 77 1008.5
20260505101557 66 219 10.0 15.0 0.00 0.00 0.00 74 1008.1
20260505100054 66 211 11.0 15.0 0.00 0.00 0.00 73 1008.0
20260505094553 67 224 10.0 14.0 0.00 0.00 0.00 73 1008.1
20260505093052 67 209 10.0 14.0 0.00 0.00 0.00 73 1008.0
20260505091611 68 205 10.0 16.0 0.00 0.00 0.00 72 1008.0
20260505090052 68 209 13.0 17.0 0.00 0.00 0.00 71 1008.0
20260505084552 68 202 13.0 19.0 0.00 0.00 0.00 70 1007.8
20260505083103 68 209 11.0 18.0 0.00 0.00 0.00 69 1007.9
20260505081602 69 191 14.0 21.0 0.00 0.00 0.00 68 1008.2
20260505080107 69 198 11.0 18.0 0.00 0.00 0.00 67 1008.2
20260505074553 70 194 9.0 16.0 0.00 0.00 0.00 65 1008.4
20260505073051 70 192 12.0 18.0 0.00 0.00 0.00 64 1008.5
20260505071604 70 195 12.0 22.0 0.00 0.00 0.00 63 1008.7